This is the latest recevied weather packets stored in our database for station/object SP8IZA-1. If no packets are shown the sender has not sent any weather packets the latest 1 day(s).
| Time | Temp. | Humidity | Pressure | Rain* | Wind** | Luminosity | Snow |
|---|---|---|---|---|---|---|---|
| 1778103574 | 17.78° C | 40% | 1004.4 hPa | - | - | - | - |
| 1778102973 | 18.33° C | 40% | 1004.3 hPa | - | - | - | - |
| 1778102372 | 18.33° C | 40% | 1004.4 hPa | - | - | - | - |
| 1778101771 | 18.89° C | 40% | 1004.6 hPa | - | - | - | - |
| 1778101170 | 18.89° C | 40% | 1004.6 hPa | - | - | - | - |
| 1778100569 | 19.44° C | 40% | 1004.5 hPa | - | - | - | - |
| 1778099968 | 18.89° C | 40% | 1004.4 hPa | - | - | - | - |
| 1778099367 | 18.89° C | 40% | 1004.4 hPa | - | - | - | - |
| 1778098766 | 17.78° C | 40% | 1004.3 hPa | - | - | - | - |
| 1778098165 | 17.78° C | 40% | 1004.2 hPa | - | - | - | - |
| 1778097564 | 17.78° C | 40% | 1004.2 hPa | - | - | - | - |
| 1778096963 | 17.78° C | 40% | 1004.2 hPa | - | - | - | - |
| 1778096362 | 18.33° C | 40% | 1004.3 hPa | - | - | - | - |
| 1778095761 | 18.33° C | 40% | 1004.3 hPa | - | - | - | - |
| 1778095160 | 18.89° C | 40% | 1004.2 hPa | - | - | - | - |
| 1778094559 | 18.89° C | 40% | 1004.2 hPa | - | - | - | - |
| 1778093958 | 19.44° C | 40% | 1004.1 hPa | - | - | - | - |
| 1778092756 | 20° C | 39% | 1003.9 hPa | - | - | - | - |
| 1778092155 | 20.56° C | 39% | 1003.7 hPa | - | - | - | - |
| 1778091554 | 21.11° C | 39% | 1003.7 hPa | - | - | - | - |
| 1778090953 | 22.22° C | 38% | 1003.6 hPa | - | - | - | - |
| 1778090352 | 22.78° C | 38% | 1003.5 hPa | - | - | - | - |
| 1778089751 | 23.33° C | 38% | 1003.6 hPa | - | - | - | - |
| 1778089150 | 24.44° C | 37% | 1003.6 hPa | - | - | - | - |
| 1778088549 | 25° C | 37% | 1003.5 hPa | - | - | - | - |
* Rain since midnight (hover to see other rain measurements)
** Current wind speed in m/s (hover to see current wind gust speed)